BCS4126 EDDP-LOWL

Flight info

Callsign BCS4126
Flight time 0h 43m
Altitude 29000
Route GOLAT2N GOLAT T202 ALOSO T703 DEXIT DEXIT2K
Aircraft B738/M-SDE2E3FGHIRWXY/LB1

Departure

Time 2026-04-22 05:48
Airport Leipzig/Halle Airport (EDDP)

Arrival

Time 2026-04-22 06:31
Airport Linz-Hörsching Airport (LOWL)
Time Latitude Longitude Altitude Speed Heading
2026-04-22 05:21 51.40834 12.24355 463 ft 0 kts 85°
2026-04-22 05:38 51.40832 12.24320 462 ft 4 kts 85°
2026-04-22 05:38 51.40830 12.24277 463 ft 4 kts 81°
2026-04-22 05:38 51.40822 12.24245 463 ft 4 kts 18°
2026-04-22 05:38 51.40803 12.24244 460 ft 4 kts 355°
2026-04-22 05:39 51.40789 12.24246 463 ft 1 kts 355°
2026-04-22 05:44 51.40791 12.24245 463 ft 1 kts 355°
2026-04-22 05:44 51.40819 12.24242 463 ft 6 kts 355°
2026-04-22 05:44 51.40861 12.24237 463 ft 6 kts 355°
2026-04-22 05:45 51.40904 12.24232 463 ft 6 kts 356°
2026-04-22 05:45 51.40948 12.24226 464 ft 7 kts 355°
2026-04-22 05:45 51.41000 12.24220 465 ft 8 kts 355°
2026-04-22 05:45 51.41059 12.24216 464 ft 9 kts 13°
2026-04-22 05:46 51.41081 12.24310 465 ft 11 kts 89°
2026-04-22 05:46 51.41087 12.24435 465 ft 12 kts 84°
2026-04-22 05:46 51.41105 12.24559 463 ft 12 kts 45°
2026-04-22 05:46 51.41181 12.24590 467 ft 11 kts 13°
2026-04-22 05:47 51.41258 12.24619 469 ft 11 kts 14°
2026-04-22 05:47 51.41332 12.24642 472 ft 11 kts 349°
2026-04-22 05:47 51.41350 12.24535 470 ft 12 kts 266°
2026-04-22 05:47 51.41348 12.24493 469 ft 5 kts 266°
2026-04-22 05:48 51.41334 12.24151 470 ft 70 kts 265°
2026-04-22 05:48 51.41280 12.22927 461 ft 147 kts 267°
2026-04-22 05:48 51.41185 12.21055 876 ft 181 kts 268°
2026-04-22 05:48 51.41107 12.18961 1830 ft 194 kts 268°
2026-04-22 05:49 51.41008 12.16778 2804 ft 199 kts 268°
2026-04-22 05:49 51.40899 12.14587 3765 ft 197 kts 268°
2026-04-22 05:49 51.40783 12.12289 4389 ft 216 kts 268°
2026-04-22 05:49 51.40655 12.09748 4710 ft 238 kts 267°
2026-04-22 05:50 51.40500 12.07089 5307 ft 247 kts 261°
2026-04-22 05:50 51.39728 12.04592 5790 ft 264 kts 224°
2026-04-22 05:50 51.38097 12.03202 6371 ft 274 kts 189°
2026-04-22 05:50 51.36191 12.02803 7309 ft 277 kts 184°
2026-04-22 05:51 51.34254 12.02556 8226 ft 282 kts 180°
2026-04-22 05:51 51.32262 12.02462 9050 ft 290 kts 178°
2026-04-22 05:51 51.30226 12.02400 9968 ft 295 kts 178°
2026-04-22 05:51 51.28151 12.02336 10775 ft 304 kts 178°
2026-04-22 05:52 51.25950 12.02263 11042 ft 331 kts 178°
2026-04-22 05:52 51.23553 12.02173 11310 ft 355 kts 179°
2026-04-22 05:52 51.21049 12.02062 11938 ft 365 kts 179°
2026-04-22 05:52 51.18490 12.01940 12762 ft 370 kts 179°
2026-04-22 05:53 51.15907 12.01811 13625 ft 373 kts 179°
2026-04-22 05:53 51.13291 12.01681 14391 ft 379 kts 179°
2026-04-22 05:53 51.10640 12.01550 15129 ft 383 kts 179°
2026-04-22 05:53 51.07969 12.01418 15898 ft 386 kts 179°
2026-04-22 05:54 51.05263 12.01284 16657 ft 390 kts 179°
2026-04-22 05:54 51.02539 12.01151 17380 ft 394 kts 179°
2026-04-22 05:54 50.99782 12.01016 18094 ft 398 kts 179°
2026-04-22 05:54 50.96996 12.00880 18787 ft 403 kts 179°
2026-04-22 05:55 50.94186 12.00743 19401 ft 407 kts 179°
2026-04-22 05:55 50.91341 12.00605 20013 ft 410 kts 179°
2026-04-22 05:55 50.88477 12.00466 20620 ft 414 kts 179°
2026-04-22 05:55 50.85585 12.00325 21220 ft 418 kts 179°
2026-04-22 05:56 50.82663 12.00183 21815 ft 422 kts 179°
2026-04-22 05:56 50.79718 12.00039 22390 ft 426 kts 179°
2026-04-22 05:56 50.76745 11.99895 22955 ft 430 kts 179°
2026-04-22 05:56 50.73740 11.99749 23502 ft 433 kts 179°
2026-04-22 05:57 50.70714 11.99602 24023 ft 437 kts 179°
2026-04-22 05:57 50.67664 11.99473 24456 ft 440 kts 176°
2026-04-22 05:57 50.64625 11.99918 24924 ft 438 kts 166°
2026-04-22 05:57 50.61651 12.00930 25423 ft 437 kts 162°
2026-04-22 05:58 50.58698 12.02146 25860 ft 440 kts 161°
2026-04-22 05:58 50.55732 12.03393 26277 ft 443 kts 161°
2026-04-22 05:58 50.52735 12.04598 26687 ft 446 kts 162°
2026-04-22 05:58 50.49705 12.05757 27096 ft 449 kts 162°
2026-04-22 05:59 50.46654 12.06895 27497 ft 452 kts 163°
2026-04-22 05:59 50.43576 12.07984 27891 ft 455 kts 163°
2026-04-22 05:59 50.40471 12.09046 28278 ft 458 kts 163°
2026-04-22 05:59 50.37344 12.10110 28664 ft 461 kts 163°
2026-04-22 06:00 50.34198 12.11187 29016 ft 464 kts 163°
2026-04-22 06:00 50.31037 12.12276 29432 ft 465 kts 163°
2026-04-22 06:00 50.27923 12.13348 29973 ft 463 kts 163°
2026-04-22 06:00 50.24781 12.14430 30537 ft 461 kts 163°
2026-04-22 06:01 50.21677 12.15613 30948 ft 457 kts 157°
2026-04-22 06:01 50.18739 12.17571 31275 ft 451 kts 146°
2026-04-22 06:01 50.13625 12.23189 31308 ft 450 kts 137°
2026-04-22 06:02 50.08702 12.29006 31287 ft 443 kts 138°
2026-04-22 06:02 50.03753 12.34745 31298 ft 445 kts 138°
2026-04-22 06:03 49.98766 12.40475 31325 ft 446 kts 138°
2026-04-22 06:03 49.93763 12.46206 31298 ft 448 kts 139°
2026-04-22 06:04 49.88750 12.51936 31294 ft 448 kts 139°
2026-04-22 06:04 49.83730 12.57658 31288 ft 448 kts 139°
2026-04-22 06:05 49.78637 12.63233 31288 ft 448 kts 140°
2026-04-22 06:05 49.73506 12.68715 31289 ft 448 kts 140°
2026-04-22 06:06 49.68387 12.74200 31297 ft 448 kts 140°
2026-04-22 06:06 49.63267 12.79695 31288 ft 448 kts 140°
2026-04-22 06:07 49.58310 12.85377 31284 ft 446 kts 137°
2026-04-22 06:07 49.53396 12.91212 31283 ft 446 kts 137°
2026-04-22 06:08 49.48439 12.96991 31290 ft 447 kts 138°
2026-04-22 06:08 49.43463 13.02742 31281 ft 448 kts 138°
2026-04-22 06:09 49.38475 13.08493 31277 ft 449 kts 138°
2026-04-22 06:09 49.33480 13.14245 31260 ft 449 kts 138°
2026-04-22 06:10 49.30962 13.17141 30687 ft 453 kts 138°
2026-04-22 06:10 49.28450 13.20022 29943 ft 450 kts 138°
2026-04-22 06:10 49.25959 13.22840 29508 ft 441 kts 139°
2026-04-22 06:10 49.23435 13.25503 28843 ft 438 kts 141°
2026-04-22 06:11 49.20916 13.28056 28331 ft 433 kts 141°
2026-04-22 06:11 49.18415 13.30571 27807 ft 428 kts 142°
2026-04-22 06:11 49.15943 13.33070 27268 ft 423 kts 141°
2026-04-22 06:11 49.13509 13.35548 26792 ft 419 kts 141°
2026-04-22 06:12 49.11101 13.38015 26260 ft 415 kts 141°
2026-04-22 06:12 49.08712 13.40468 25739 ft 412 kts 141°
2026-04-22 06:12 49.06345 13.42899 25230 ft 409 kts 141°
2026-04-22 06:12 49.03998 13.45308 24731 ft 405 kts 141°
2026-04-22 06:13 49.01667 13.47697 24232 ft 402 kts 141°
2026-04-22 06:13 48.99352 13.50067 23731 ft 400 kts 141°
2026-04-22 06:13 48.97052 13.52420 23157 ft 397 kts 141°
2026-04-22 06:13 48.94767 13.54751 22637 ft 393 kts 141°
2026-04-22 06:14 48.92592 13.56968 22269 ft 397 kts 141°
2026-04-22 06:14 48.90359 13.59250 22253 ft 416 kts 142°
2026-04-22 06:14 48.87890 13.61776 21925 ft 442 kts 142°
2026-04-22 06:14 48.85307 13.64398 21943 ft 452 kts 142°
2026-04-22 06:15 48.82667 13.67069 21975 ft 460 kts 142°
2026-04-22 06:15 48.79958 13.69809 22191 ft 461 kts 142°
2026-04-22 06:15 48.77278 13.72519 22317 ft 465 kts 142°
2026-04-22 06:15 48.74600 13.75223 22520 ft 463 kts 142°
2026-04-22 06:16 48.71910 13.77937 22507 ft 465 kts 142°
2026-04-22 06:16 48.69229 13.80637 22073 ft 459 kts 143°
2026-04-22 06:16 48.66602 13.83276 21021 ft 445 kts 143°
2026-04-22 06:16 48.64100 13.85785 20072 ft 432 kts 143°
2026-04-22 06:17 48.61626 13.88267 18984 ft 424 kts 143°
2026-04-22 06:17 48.59189 13.90713 17783 ft 418 kts 143°
2026-04-22 06:17 48.56782 13.93127 16554 ft 412 kts 143°
2026-04-22 06:17 48.54411 13.95504 15373 ft 406 kts 143°
2026-04-22 06:18 48.52074 13.97842 14247 ft 400 kts 143°
2026-04-22 06:18 48.49769 14.00144 13027 ft 394 kts 143°
2026-04-22 06:18 48.47502 14.02407 11976 ft 386 kts 143°
2026-04-22 06:18 48.45301 14.04599 11339 ft 369 kts 143°
2026-04-22 06:19 48.43237 14.06650 11091 ft 345 kts 143°
2026-04-22 06:19 48.41279 14.08599 10916 ft 331 kts 143°
2026-04-22 06:19 48.39390 14.10479 10739 ft 321 kts 143°
2026-04-22 06:19 48.37540 14.12320 10439 ft 316 kts 143°
2026-04-22 06:20 48.35728 14.14117 10259 ft 307 kts 143°
2026-04-22 06:20 48.33974 14.15854 10120 ft 298 kts 142°
2026-04-22 06:20 48.32529 14.17938 9977 ft 280 kts 117°
2026-04-22 06:20 48.31859 14.20558 9821 ft 266 kts 98°
2026-04-22 06:21 48.31785 14.23321 9471 ft 263 kts 85°
2026-04-22 06:21 48.31878 14.26054 9119 ft 265 kts 85°
2026-04-22 06:21 48.31980 14.28814 8834 ft 265 kts 85°
2026-04-22 06:21 48.32082 14.31576 8596 ft 263 kts 85°
2026-04-22 06:22 48.32179 14.34309 8250 ft 266 kts 85°
2026-04-22 06:22 48.32275 14.37086 7967 ft 266 kts 85°
2026-04-22 06:22 48.32369 14.39866 7709 ft 265 kts 85°
2026-04-22 06:22 48.32456 14.42526 7626 ft 252 kts 85°
2026-04-22 06:23 48.32513 14.44270 7493 ft 245 kts 85°
2026-04-22 06:23 48.32631 14.47663 6897 ft 245 kts 85°
2026-04-22 06:23 48.32741 14.50214 6457 ft 244 kts 85°
2026-04-22 06:23 48.32819 14.51921 6172 ft 241 kts 85°
2026-04-22 06:24 48.33080 14.57612 5190 ft 231 kts 85°
2026-04-22 06:24 48.33068 14.59235 4875 ft 230 kts 94°
2026-04-22 06:24 48.32515 14.61463 4393 ft 233 kts 128°
2026-04-22 06:25 48.30627 14.62714 4009 ft 228 kts 184°
2026-04-22 06:25 48.29615 14.62253 4008 ft 225 kts 207°
2026-04-22 06:25 48.28251 14.61082 3980 ft 226 kts 212°
2026-04-22 06:25 48.27047 14.59610 3996 ft 226 kts 227°
2026-04-22 06:26 48.26138 14.57738 3974 ft 218 kts 242°
2026-04-22 06:26 48.25517 14.55689 3981 ft 215 kts 251°
2026-04-22 06:26 48.25064 14.53551 3998 ft 215 kts 256°
2026-04-22 06:26 48.24740 14.51354 3997 ft 216 kts 261°
2026-04-22 06:27 48.24483 14.49135 4008 ft 217 kts 263°
2026-04-22 06:27 48.24324 14.46884 4013 ft 216 kts 267°
2026-04-22 06:27 48.24229 14.44639 4012 ft 216 kts 268°
2026-04-22 06:27 48.24149 14.42383 3922 ft 218 kts 269°
2026-04-22 06:28 48.24068 14.40108 3664 ft 218 kts 269°
2026-04-22 06:28 48.23987 14.37865 3379 ft 212 kts 269°
2026-04-22 06:28 48.23910 14.35728 3084 ft 198 kts 269°
2026-04-22 06:28 48.23839 14.33739 2820 ft 185 kts 269°
2026-04-22 06:29 48.23772 14.31842 2567 ft 175 kts 269°
2026-04-22 06:29 48.23711 14.30100 2358 ft 162 kts 268°
2026-04-22 06:29 48.23655 14.28495 2171 ft 142 kts 268°
2026-04-22 06:29 48.23615 14.27086 1947 ft 133 kts 270°
2026-04-22 06:30 48.23563 14.25684 1693 ft 133 kts 265°
2026-04-22 06:30 48.23499 14.24318 1518 ft 129 kts 268°
2026-04-22 06:30 48.23466 14.22956 1332 ft 131 kts 266°
2026-04-22 06:30 48.23409 14.21593 1136 ft 131 kts 268°
2026-04-22 06:31 48.23368 14.20241 997 ft 129 kts 267°
2026-04-22 06:31 48.23326 14.19015 977 ft 96 kts 268°
2026-04-22 06:31 48.23304 14.18219 981 ft 53 kts 266°
2026-04-22 06:31 48.23315 14.17891 990 ft 18 kts 330°
2026-04-22 06:32 48.23437 14.17929 985 ft 18 kts 11°
2026-04-22 06:32 48.23558 14.17970 979 ft 18 kts 17°
2026-04-22 06:32 48.23674 14.18024 978 ft 17 kts 21°
2026-04-22 06:32 48.23704 14.18140 982 ft 0 kts 125°
2026-04-22 06:33 48.23704 14.18142 982 ft 0 kts 117°
2026-04-22 06:33 48.23706 14.18151 981 ft 2 kts 85°
2026-04-22 06:33 48.23711 14.18194 987 ft 6 kts 77°
2026-04-22 06:34 48.23722 14.18270 980 ft 8 kts 82°
2026-04-22 06:34 48.23726 14.18354 985 ft 8 kts 86°
2026-04-22 06:34 48.23729 14.18437 981 ft 8 kts 86°
2026-04-22 06:34 48.23732 14.18536 978 ft 11 kts 86°
2026-04-22 06:35 48.23737 14.18661 978 ft 13 kts 86°
2026-04-22 06:35 48.23741 14.18802 977 ft 14 kts 89°
2026-04-22 06:35 48.23754 14.18934 984 ft 13 kts 39°
2026-04-22 06:35 48.23793 14.18968 983 ft 1 kts 86°
2026-04-22 06:36 48.23793 14.18983 980 ft 1 kts 86°
2026-04-22 06:36 48.23794 14.18997 978 ft 1 kts 85°
2026-04-22 06:36 48.23795 14.19011 982 ft 1 kts 86°
2026-04-22 06:36 48.23795 14.19022 976 ft 1 kts 86°
2026-04-22 06:37 48.23795 14.19025 976 ft 0 kts 86°